Flag for Germany Weather past 2 weeks in Husum, Schleswig-Holstein, Germany

Now
63 °F

Mild.


Feels Like: 63 °F
Forecast: 60 / 70 °F
Wind: 9 mph from Northeast

Location: Schleswig-Jagel

Current Time: Aug 31, 2015 at 1:34:25 AM

Latest Report: Aug 31, 2015 at 12:20 AM


Visibility: 2 mi

Pressure: 30.04 "Hg

Humidity: 88%

Dew point: 59 °F

Location of HusumLocation

Historic Weather in Husum — Graph

°F

Husum temperature yesterday

Maximum temperature yesterday: 68 °F (at 12:20 PM)
Minimum temperature yesterday: 54 °F (at 4:20 AM)
Average temperature yesterday: 62 °F

Past Weeks' High & Low Weather Summary

 TemperatureHumidityPressure
High77 °F (Aug 21, 4:20 PM)100% (Aug 16, 12:20 AM)30.30 "Hg (Aug 16, 12:20 AM)
Low50 °F (Aug 21, 5:20 AM)36% (Aug 21, 4:20 PM)29.56 "Hg (Aug 24, 10:20 PM)
Average64 °F80%29.98 "Hg
* Reported Aug 16 12:20 AM — Aug 31 12:20 AM, Husum, Weather by CustomWeather, © 2015

Note: Actual official high and low records may vary slightly from our data, if they occured in-between our weather recording intervals... More about our weather records

Advertising

Husum weather history for previous 24 hours

 ConditionsComfort  
Time TempWeatherWind HumidityBarometerVisibility
12:20 AM
Mon, Aug 31
63 °FMild.9 mph88%30.04 "Hg2 mi
11:20 PM
Sun, Aug 30
63 °FMild.9 mph83%30.04 "Hg2 mi
10:20 PM63 °FMild.7 mph83%30.04 "Hg2 mi
9:20 PM64 °FMild.9 mph73%30.07 "Hg2 mi
8:20 PM64 °FMild.10 mph73%30.07 "Hg3 mi
7:20 PM66 °FMild.14 mph68%30.07 "Hg3 mi
6:20 PM66 °FMild.13 mph68%30.07 "Hg3 mi
5:20 PM66 °FMild.12 mph68%30.07 "Hg3 mi
4:20 PM68 °FMild.13 mph64%30.09 "Hg3 mi
3:20 PM68 °FMild.12 mph64%30.09 "Hg3 mi
2:20 PM68 °FMild.13 mph69%30.09 "Hg3 mi
1:20 PM66 °FMild.10 mph73%30.12 "Hg3 mi
12:20 PM68 °FMild.10 mph69%30.09 "Hg3 mi
11:20 AM66 °FMild.12 mph68%30.12 "Hg3 mi
10:20 AM64 °FMild.10 mph78%30.12 "Hg3 mi
9:20 AM63 °FMild.6 mph83%30.12 "Hg3 mi
8:20 AM59 °FCool.2 mph94%30.12 "Hg2 mi
7:20 AM57 °FCool.2 mph88%30.12 "Hg2 mi
6:20 AM57 °FCool.2 mph88%30.09 "Hg2 mi
5:20 AM55 °FCool.2 mph94%30.12 "Hg2 mi
4:20 AM54 °FCool.2 mph94%30.12 "Hg2 mi
3:20 AM55 °FCool.2 mph88%30.12 "Hg2 mi
2:20 AM55 °FCool.1 mph88%30.15 "Hg2 mi
1:20 AM57 °FCool.5 mph82%30.15 "Hg2 mi
Weather by CustomWeather, © 2015

See weather overviewHow to use our weather pages